List of Smallville Episodes
Browse the List of Smallville Episodes below. View Videos or join the discussion on this topic. Add List of Smallville Episodes to your PopFlock.com topic list for future reference or share this resource on social media.
List of Smallville Episodes

Smallville 2001 logo.svg

Smallville is an American television series, which was developed by Alfred Gough and Miles Millar, based on the DC Comics character Superman. In the United States, the first episode of the series originally aired on October 16, 2001; the series finished its ten-year run on May 13, 2011, with 217 episodes. The first five seasons were broadcast on The WB; following The WB's merger with UPN in September 2006, Smallville continued to be aired on the new, combined network, dubbed The CW.[1] All ten seasons are currently available on DVD in Regions 1, 2, and 4. Since the series premiered, it has averaged 4.47 million viewers per episode over its ten seasons.

Smallville follows the life of Clark Kent (Tom Welling), beginning when he is a teenager in the town of Smallville, Kansas, and continuing through high school, college, and his start at the Daily Planet before he adopts the "Superman" persona. As the series progresses, Clark Kent copes with his emerging superpowers (x-ray vision, super hearing, etc.), exploration of his extraterrestrial origins and discovering his true destiny. The series also deals with the people in Clark Kent's life: his human parents, Jonathan Kent (John Schneider) and Martha Kent (Annette O'Toole); his friends Chloe Sullivan (Allison Mack) and Pete Ross (Sam Jones III); his love interest for seven seasons Lana Lang (Kristin Kreuk); Chloe's cousin and Clark's love interest since season eight, Lois Lane (Erica Durance); and his friendship with Lex Luthor (Michael Rosenbaum) and how this gradually decays into their mutual enmity of legend.

Series overview

SeasonEpisodesOriginally aired
First airedLast airedNetwork
121October 16, 2001 (2001-10-16)May 21, 2002 (2002-05-21)The WB
223September 24, 2002 (2002-09-24)May 20, 2003 (2003-05-20)
322October 1, 2003 (2003-10-01)May 19, 2004 (2004-05-19)
422September 22, 2004 (2004-09-22)May 18, 2005 (2005-05-18)
522September 29, 2005 (2005-09-29)May 11, 2006 (2006-05-11)
622September 28, 2006 (2006-09-28)May 17, 2007 (2007-05-17)The CW
720September 27, 2007 (2007-09-27)May 15, 2008 (2008-05-15)
822September 18, 2008 (2008-09-18)May 14, 2009 (2009-05-14)
921September 25, 2009 (2009-09-25)May 14, 2010 (2010-05-14)
1022September 24, 2010 (2010-09-24)May 13, 2011 (2011-05-13)

Episodes

Season 1 (2001-02)

No.
overall
No. in
season
TitleDirected byWritten byOriginal air dateProd.
code
U.S. viewers
(millions)
11"Pilot"David NutterAlfred Gough & Miles MillarOctober 16, 2001 (2001-10-16)4751658.4[2]
22"Metamorphosis"Michael Watkins
& Philip Sgriccia
Alfred Gough & Miles MillarOctober 23, 2001 (2001-10-23)2276017.3[3]
33"Hothead"Greg BeemanGreg WalkerOctober 30, 2001 (2001-10-30)2276036.0[3]
44"X-Ray"James FrawleyMark VerheidenNovember 6, 2001 (2001-11-06)2276046.6[3]
55"Cool"James A. ContnerMichael GreenNovember 13, 2001 (2001-11-13)2276055.9[3]
66"Hourglass"Chris LongDoris EganNovember 20, 2001 (2001-11-20)2276066.4[3]
77"Craving"Philip SgricciaMichael GreenNovember 27, 2001 (2001-11-27)2276077.4[3]
88"Jitters"Michael WatkinsCherie Bennett & Jeff GottesfeldDecember 11, 2001 (2001-12-11)2276025.8[3]
99"Rogue"David CarsonMark VerheidenJanuary 15, 2002 (2002-01-15)2276085.8[3]
1010"Shimmer"D. J. CarusoMark Verheiden & Michael GreenJanuary 29, 2002 (2002-01-29)2276097.0[3]
1111"Hug"Chris LongDoris EganFebruary 5, 2002 (2002-02-05)2276106.4[3]
1212"Leech"Greg BeemanTimothy SchlattmannFebruary 12, 2002 (2002-02-12)2276116.1[3]
1313"Kinetic"Robert SingerPhilip LevensFebruary 26, 2002 (2002-02-26)2276126.2[3]
1414"Zero"Michael KatlemanTeleplay by: Mark Verheiden
Story by: Alfred Gough & Miles Millar
March 12, 2002 (2002-03-12)2276136.9[3]
1515"Nicodemus"James MarshallTeleplay by: Michael Green
Story by: Greg Walker
March 19, 2002 (2002-03-19)2276146.7[3]
1616"Stray"Paul ShapiroPhilip LevensApril 16, 2002 (2002-04-16)2276156.0[3]
1717"Reaper"Terrence O'HaraCameron LitvackApril 23, 2002 (2002-04-23)2276165.5[3]
1818"Drone"Michael KatlemanMichael Green & Philip LevensApril 30, 2002 (2002-04-30)2276175.7[3]
1919"Crush"James MarshallPhilip Levens & Alfred Gough & Miles MillarMay 7, 2002 (2002-05-07)2276186.4[3]
2020"Obscura"Terrence O'HaraTeleplay by: Mark Verheiden & Michael Green
Story by : Greg Walker
May 14, 2002 (2002-05-14)2276196.1[3]
2121"Tempest"Greg BeemanTeleplay by: Alfred Gough & Miles Millar
Story by: Philip Levens
May 21, 2002 (2002-05-21)2276206.0[3]

Season 2 (2002-03)

No.
overall
No. in
season
TitleDirected byWritten byOriginal air dateProd.
code
U.S. viewers
(millions)
221"Vortex"Greg BeemanTeleplay by: Philip Levens
Story by: Alfred Gough & Miles Millar
September 24, 2002 (2002-09-24)1750518.7[4]
232"Heat"James MarshallMark VerheidenOctober 1, 2002 (2002-10-01)1750528.1[4]
243"Duplicity"Steve MinerTodd Slavkin & Darren SwimmerOctober 8, 2002 (2002-10-08)1750538.8[4]
254"Red"Jeff WoolnoughJeph LoebOctober 15, 2002 (2002-10-15)1750548.9[4]
265"Nocturne"Rick WallaceBrian Peterson & Kelly SoudersOctober 22, 2002 (2002-10-22)1750558.3[4]
276"Redux"Chris LongRussel Friend & Garrett LernerOctober 29, 2002 (2002-10-29)2276218.2[4]
287"Lineage"Greg BeemanTeleplay by: Kenneth Biller
Story by: Alfred Gough & Miles Millar
November 5, 2002 (2002-11-05)1750569.4[4]
298"Ryan"Terrence O'HaraPhilip LevensNovember 12, 2002 (2002-11-12)1750577.4[4]
309"Dichotic"Craig ZiskMark VerheidenNovember 19, 2002 (2002-11-19)1750588.3[4]
3110"Skinwalker"Marita GrabiakTeleplay by: Brian Peterson & Kelly Souders
Story by: Mark Warshaw
November 26, 2002 (2002-11-26)1750598.6[4]
3211"Visage"William GereghtyTodd Slavkin & Darren SwimmerJanuary 14, 2003 (2003-01-14)1750607.3[4]
3312"Insurgence"James MarshallKenneth Biller & Jeph LoebJanuary 21, 2003 (2003-01-21)1750626.6[4]
3413"Suspect"Greg BeemanMark Verheiden & Philip LevensJanuary 28, 2003 (2003-01-28)1750617.5[4]
3514"Rush"Rick RosenthalTodd Slavkin & Darren SwimmerFebruary 4, 2003 (2003-02-04)1750638.1[4]
3615"Prodigal"Greg BeemanBrian Peterson & Kelly SoudersFebruary 11, 2003 (2003-02-11)1750647.4[4]
3716"Fever"Bill GereghtyMatthew OkumuraFebruary 18, 2003 (2003-02-18)1750657.9[4]
3817"Rosetta"James MarshallAlfred Gough & Miles MillarFebruary 25, 2003 (2003-02-25)1750668.7[4]
3918"Visitor"Rick RosenthalPhilip LevensApril 15, 2003 (2003-04-15)1750675.9[4]
4019"Precipice"Thomas J. WrightClint CarpenterApril 22, 2003 (2003-04-22)1750686.7[4]
4120"Witness"Rick WallaceMark VerheidenApril 29, 2003 (2003-04-29)1750696.5[4]
4221"Accelerate"James MarshallTeleplay by: Brian Peterson & Kelly Souders
Story by: Todd Slavkin & Darren Swimmer
May 6, 2003 (2003-05-06)1750707.0[4]
4322"Calling"Terrence O'HaraKenneth BillerMay 13, 2003 (2003-05-13)1750717.1[4]
4423"Exodus"Greg BeemanAlfred Gough & Miles MillarMay 20, 2003 (2003-05-20)1750727.5[4]

Season 3 (2003-04)

No.
overall
No. in
season
TitleDirected byWritten byOriginal air dateProd.
code
U.S. viewers
(millions)
451"Exile"Greg BeemanAlfred Gough & Miles MillarOctober 1, 2003 (2003-10-01)1762016.80[5]
462"Phoenix"James MarshallKelly Souders & Brian PetersonOctober 8, 2003 (2003-10-08)1762026.70[5]
473"Extinction"Michael KatlemanTodd Slavkin & Darren SwimmerOctober 15, 2003 (2003-10-15)1762036.50[5]
484"Slumber"Daniel AttiasDrew Z. GreenbergOctober 22, 2003 (2003-10-22)1762046.90[5]
495"Perry"Jeannot SzwarcMark VerheidenOctober 29, 2003 (2003-10-29)1762056.70[5]
506"Relic"Marita GrabiakKelly Souders & Brian PetersonNovember 5, 2003 (2003-11-05)1762066.70[5]
517"Magnetic"David JacksonHolly HaroldNovember 12, 2003 (2003-11-12)1762076.90[5]
528"Shattered"Ken BillerKen BillerNovember 19, 2003 (2003-11-19)1762086.40[5]
539"Asylum"Greg BeemanTodd Slavkin & Darren SwimmerJanuary 14, 2004 (2004-01-14)1762095.60[5]
5410"Whisper"Tom WrightKen HortonJanuary 21, 2004 (2004-01-21)1762105.10[5]
5511"Delete"Pat WilliamsKelly Souders & Brian PetersonJanuary 28, 2004 (2004-01-28)1762115.50[5]
5612"Hereafter"Greg Beeman & James MarshallMark Verheiden & Drew GreenbergFebruary 4, 2004 (2004-02-04)1762125.30[5]
5713"Velocity"Jeannot SzwarcTodd Slavkin & Darren SwimmerFebruary 11, 2004 (2004-02-11)1762135.00[5]
5814"Obsession"James MarshallHolly HaroldFebruary 18, 2004 (2004-02-18)1762145.33[6]
5915"Resurrection"Terrence O'HaraTodd Slavkin & Darren SwimmerFebruary 25, 2004 (2004-02-25)1762154.97[7]
6016"Crisis"Ken BillerKelly Souders & Brian PetersonMarch 3, 2004 (2004-03-03)1762165.26[8]
6117"Legacy"Greg BeemanJeph LoebApril 14, 2004 (2004-04-14)1762174.48[9]
6218"Truth"James MarshallDrew GreenbergApril 21, 2004 (2004-04-21)1762184.43[10]
6319"Memoria"Miles MillarAlfred Gough & Miles MillarApril 28, 2004 (2004-04-28)1762194.32[11]
6420"Talisman"John SchneiderKen BillerMay 5, 2004 (2004-05-05)1762204.72[12]
6521"Forsaken"Terrence O'HaraKelly Souders & Brian PetersonMay 12, 2004 (2004-05-12)1762214.54[13]
6622"Covenant"Greg BeemanTeleplay by: Alfred Gough & Miles Millar
Story by: Todd Slavkin & Darren Swimmer
May 19, 2004 (2004-05-19)1762225.92[14]

Season 4 (2004-05)

No.
overall
No. in
season
TitleDirected byWritten byOriginal air dateProd.
code
U.S. viewers
(millions)
671"Crusade"Greg BeemanAlfred Gough & Miles MillarSeptember 22, 2004 (2004-09-22)2T52016.07[15]
682"Gone"James MarshallKelly Souders & Brian PetersonSeptember 29, 2004 (2004-09-29)2T52025.66[16]
693"Façade"Pat WilliamsHolly HaroldOctober 6, 2004 (2004-10-06)2T52035.45[17]
704"Devoted"David CarsonLuke SchelhaasOctober 13, 2004 (2004-10-13)2T52046.20[18]
715"Run"David BarrettSteven S. DeKnightOctober 20, 2004 (2004-10-20)2T52055.41[19]
726"Transference"James MarshallTodd Slavkin & Darren SwimmerOctober 27, 2004 (2004-10-27)2T52065.69[20]
737"Jinx"Paul ShapiroMark WarshawNovember 3, 2004 (2004-11-03)2T52075.02[21]
748"Spell"Jeannot SzwarcSteven S. DeKnightNovember 10, 2004 (2004-11-10)2T52085.51[22]
759"Bound"Terrence O'HaraLuke SchelhaasNovember 17, 2004 (2004-11-17)2T52095.06[23]
7610"Scare"David CarsonKelly Souders & Brian PetersonDecember 1, 2004 (2004-12-01)2T52104.89[24]
7711"Unsafe"Greg BeemanSteven S. DeKnight & Jeph LoebJanuary 26, 2005 (2005-01-26)2T52114.21[25]
7812"Pariah"Paul ShapiroHolly HaroldFebruary 2, 2005 (2005-02-02)2T52124.78[26]
7913"Recruit"Jeannot SzwarcTodd Slavkin & Darren SwimmerFebruary 9, 2005 (2005-02-09)2T52134.91[27]
8014"Krypto"James MarshallLuke SchelhaasFebruary 16, 2005 (2005-02-16)2T52145.08[28]
8115"Sacred"Brad TurnerKelly Souders & Brian PetersonFebruary 23, 2005 (2005-02-23)2T52155.26[29]
8216"Lucy"David BarrettTeleplay by: Neil Sadhu & Daniel Sulzberg
Story by: Neil Sadhu
March 2, 2005 (2005-03-02)2T52164.51[30]
8317"Onyx"Terrence O'HaraSteven S. DeKnightApril 13, 2005 (2005-04-13)2T52173.85[31]
8418"Spirit"Whitney RansickLuke SchelhaasApril 20, 2005 (2005-04-20)2T52184.39[32]
8519"Blank"Jeannot SzwarcKelly Souders & Brian PetersonApril 27, 2005 (2005-04-27)2T52194.59[33]
8620"Ageless"Steven S. DeKnightSteven S. DeKnightMay 4, 2005 (2005-05-04)2T52204.51[34]
8721"Forever"James MarshallBrian Peterson & Kelly SoudersMay 11, 2005 (2005-05-11)2T52213.96[35]
8822"Commencement"Greg BeemanTodd Slavkin & Darren SwimmerMay 18, 2005 (2005-05-18)2T52225.47[36]

Season 5 (2005-06)

No.
overall
No. in
season
TitleDirected byWritten byOriginal air dateProd.
code
U.S. viewers
(millions)
891"Arrival"James MarshallTodd Slavkin & Darren SwimmerSeptember 29, 2005 (2005-09-29)2T64015.90[37]
902"Mortal"Terrence O'HaraSteven S. DeKnightOctober 6, 2005 (2005-10-06)2T64025.84[38]
913"Hidden"Whitney RansickKelly Souders & Brian PetersonOctober 13, 2005 (2005-10-13)2T64035.92[39]
924"Aqua"Bradford MayTodd Slavkin & Darren SwimmerOctober 20, 2005 (2005-10-20)2T64046.40[40]
935"Thirst"Paul ShapiroSteven S. DeKnightOctober 27, 2005 (2005-10-27)2T64055.78[41]
946"Exposed"Jeannot SzwarcKelly Souders & Brian PetersonNovember 3, 2005 (2005-11-03)2T64065.41[42]
957"Splinter"James MarshallSteven S. DeKnightNovember 10, 2005 (2005-11-10)2T64085.51[43]
968"Solitude"Paul ShapiroTodd Slavkin & Darren SwimmerNovember 17, 2005 (2005-11-17)2T64075.97[44]
979"Lexmas"Rick RosenthalHolly HaroldDecember 8, 2005 (2005-12-08)2T64095.37[45]
9810"Fanatic"Michael RohlWendy MericleJanuary 12, 2006 (2006-01-12)2T64105.45[46]
9911"Lockdown"Peter EllisSteven S. DeKnightJanuary 19, 2006 (2006-01-19)2T64114.90[47]
10012"Reckoning"Greg BeemanKelly Souders & Brian PetersonJanuary 26, 2006 (2006-01-26)2T64126.28[48]
10113"Vengeance"Jeannot SzwarcAl Septien & Turi MeyerFebruary 2, 2006 (2006-02-02)2T64135.37[49]
10214"Tomb"Whitney RansickSteven S. DeKnightFebruary 9, 2006 (2006-02-09)2T64145.41[50]
10315"Cyborg"Glen WinterCaroline DriesFebruary 16, 2006 (2006-02-16)2T64156.24[51]
10416"Hypnotic"Michael RohlTodd Slavkin & Darren SwimmerMarch 30, 2006 (2006-03-30)2T64164.78[52]
10517"Void"Jeannot SzwarcHolly HaroldApril 6, 2006 (2006-04-06)2T64174.24[53]
10618"Fragile"Tom WellingTodd Slavkin & Darren SwimmerApril 13, 2006 (2006-04-13)2T64183.94[54]
10719"Mercy"James MarshallSteven S. DeKnightApril 20, 2006 (2006-04-20)2T64194.41[55]
10820"Fade"Terrence O'HaraTuri Meyer & Al SeptienApril 27, 2006 (2006-04-27)2T64204.34[56]
10921"Oracle"Patrick NorrisTeleplay by: Caroline Dries
Story by: Neil Sadhu & Daniel Sulzberg
May 4, 2006 (2006-05-04)2T64214.81[57]
11022"Vessel"James MarshallKelly Souders & Brian PetersonMay 11, 2006 (2006-05-11)2T64224.85[58]

Season 6 (2006-07)

No.
overall
No. in
season
TitleDirected byWritten byOriginal air dateProd.
code
U.S. viewers
(millions)
1111"Zod"James MarshallSteven S. DeKnightSeptember 28, 2006 (2006-09-28)2T77014.96[59]
1122"Sneeze"Paul ShapiroTodd Slavkin & Darren SwimmerOctober 5, 2006 (2006-10-05)2T77024.52[60]
1133"Wither"Whitney RansickTracy BellomoOctober 12, 2006 (2006-10-12)2T77034.88[61]
1144"Arrow"Michael RohlBrian Peterson & Kelly SoudersOctober 19, 2006 (2006-10-19)2T77044.71[62]
1155"Reunion"Jeannot SzwarcSteven S. DeKnightOctober 26, 2006 (2006-10-26)2T77054.79[63]
1166"Fallout"Glen WinterHolly HaroldNovember 2, 2006 (2006-11-02)2T77065.01[64]
1177"Rage"Whitney RansickTodd Slavkin & Darren SwimmerNovember 9, 2006 (2006-11-09)2T77074.46[65]
1188"Static"James ConwayShintaro Shimosawa & James MorrisNovember 16, 2006 (2006-11-16)2T77084.70[66]
1199"Subterranean"Rick RosenthalCaroline DriesDecember 7, 2006 (2006-12-07)2T77094.31[67]
12010"Hydro"Tom WellingBrian Peterson & Kelly SoudersJanuary 11, 2007 (2007-01-11)2T77104.68[68]
12111"Justice"Steven S. DeKnightSteven S. DeKnightJanuary 18, 2007 (2007-01-18)2T77115.26[69]
12212"Labyrinth"Whitney RansickAl Septien & Turi MeyerJanuary 25, 2007 (2007-01-25)2T77125.00[70]
12313"Crimson"Glen WinterBrian Peterson & Kelly SoudersFebruary 1, 2007 (2007-02-01)2T77134.91[71]
12414"Trespass"Michael RohlTracy A. BellomoFebruary 8, 2007 (2007-02-08)2T77144.74[72]
12515"Freak"Michael RosenbaumTodd Slavkin & Darren SwimmerFebruary 15, 2007 (2007-02-15)2T77154.76[73]
12616"Promise"Rick RosenthalKelly Souders & Brian PetersonMarch 15, 2007 (2007-03-15)2T77164.69[74]
12717"Combat"James MarshallTuri Meyer & Al SeptienMarch 22, 2007 (2007-03-22)2T77174.07[75]
12818"Progeny"Terrence O'HaraGenevieve SparlingApril 19, 2007 (2007-04-19)2T77183.98[76]
12919"Nemesis"Mairzee AlmasCaroline DriesApril 26, 2007 (2007-04-26)2T77193.88[77]
13020"Noir"Jeannot SzwarcBrian Peterson & Kelly SoudersMay 3, 2007 (2007-05-03)2T77203.59[78]
13121"Prototype"Mat BeckSteven S. DeKnightMay 10, 2007 (2007-05-10)2T77213.43[79]
13222"Phantom"James MarshallTodd Slavkin & Darren SwimmerMay 17, 2007 (2007-05-17)2T77224.14[80]

Season 7 (2007-08)

No.
overall
No. in
season
TitleDirected byWritten byOriginal air dateProd.
code
U.S. viewers
(millions)
1331"Bizarro"Michael RohlBrian Peterson & Kelly SoudersSeptember 27, 2007 (2007-09-27)3T63015.18[81]
1342"Kara"James ConwayTodd Slavkin & Darren SwimmerOctober 4, 2007 (2007-10-04)3T63024.59[82]
1353"Fierce"Whitney RansickHolly HaroldOctober 11, 2007 (2007-10-11)3T63034.82[83]
1364"Cure"Rick RosenthalAl Septien & Turi MeyerOctober 18, 2007 (2007-10-18)3T63045.18[84]
1375"Action"Mairzee AlmasCaroline DriesOctober 25, 2007 (2007-10-25)3T63064.65[85]
1386"Lara"James ConwayDon Whitehead & Holly HendersonNovember 1, 2007 (2007-11-01)3T63054.31[86]
1397"Wrath"Charles BeesonKelly Souders & Brian PetersonNovember 8, 2007 (2007-11-08)3T63074.64[87]
1408"Blue"Glen WinterTodd Slavkin & Darren SwimmerNovember 15, 2007 (2007-11-15)3T63084.51[88]
1419"Gemini"Whitney RansickCaroline DriesDecember 13, 2007 (2007-12-13)3T63093.71[89]
14210"Persona"Todd SlavkinDon Whitehead & Holly HendersonJanuary 31, 2008 (2008-01-31)3T63103.81[90]
14311"Siren"Kevin G. FairKelly Souders & Brian PetersonFebruary 7, 2008 (2008-02-07)3T63114.01[91]
14412"Fracture"James MarshallTeleplay by: Caroline Dries
Story by: Al Septien & Turi Meyer
February 14, 2008 (2008-02-14)3T63123.67[92]
14513"Hero"Michael RohlAaron & Todd HelbingMarch 13, 2008 (2008-03-13)3T63133.80[93]
14614"Traveler"Glen WinterTeleplay by: Don Whitehead & Holly Henderson
Story by: Al Septien & Turi Meyer
March 20, 2008 (2008-03-20)3T63143.44[94]
14715"Veritas"James MarshallKelly Souders & Brian PetersonMarch 27, 2008 (2008-03-27)3T63153.86[95]
14816"Descent"Ken HortonDon Whitehead & Holly HendersonApril 17, 2008 (2008-04-17)3T63163.61[96]
14917"Sleeper"Whitney RansickCaroline DriesApril 24, 2008 (2008-04-24)3T63173.62[97]
15018"Apocalypse"Tom WellingAl Septien & Turi MeyerMay 1, 2008 (2008-05-01)3T63183.81[98]
15119"Quest"Kenneth BillerHolly HaroldMay 8, 2008 (2008-05-08)3T63193.99[99]
15220"Arctic"Todd SlavkinDon Whitehead & Holly HendersonMay 15, 2008 (2008-05-15)3T63203.85[100]

Season 8 (2008-09)

No.
overall
No. in
season
TitleDirected byWritten byOriginal air dateProd.
code
U.S. viewers
(millions)
1531"Odyssey"Kevin G. FairTeleplay by: Todd Slavkin & Darren Swimmer
Story by: Brian Peterson & Kelly Souders
September 18, 2008 (2008-09-18)3T74514.34[101]
1542"Plastique"Rick RosenthalDon Whitehead & Holly HendersonSeptember 25, 2008 (2008-09-25)3T74524.18[102]
1553"Toxic"James ConwayAl Septien & Turi MeyerOctober 2, 2008 (2008-10-02)3T74534.11[103]
1564"Instinct"Mairzee AlmasCaroline DriesOctober 9, 2008 (2008-10-09)3T74544.05[104]
1575"Committed"Glen WinterBryan Q. MillerOctober 16, 2008 (2008-10-16)3T74554.18[105]
1586"Prey"Michael RohlKelly Souders & Brian PetersonOctober 23, 2008 (2008-10-23)3774564.15[106]
1597"Identity"Mairzee AlmasTodd Slavkin & Darren SwimmerOctober 30, 2008 (2008-10-30)3T74574.32[107]
1608"Bloodline"Michael RohlCaroline DriesNovember 6, 2008 (2008-11-06)3T74594.45[108]
1619"Abyss"Kevin G. FairDon Whitehead & Holly HendersonNovember 13, 2008 (2008-11-13)3T74583.55[109]
16210"Bride"Jeannot SzwarcAl Septien & Turi MeyerNovember 20, 2008 (2008-11-20)3T74604.18[110]
16311"Legion"Glen WinterGeoff JohnsJanuary 15, 2009 (2009-01-15)3T74614.29[111]
16412"Bulletproof"Morgan BeggsBryan MillerJanuary 22, 2009 (2009-01-22)3T74623.85[112]
16513"Power"Allison MackTodd Slavkin & Darren SwimmerJanuary 29, 2009 (2009-01-29)3T74634.21[113]
16614"Requiem"Michael RohlDon Whitehead & Holly HendersonFebruary 5, 2009 (2009-02-05)3T74643.93[114]
16715"Infamous"Glen WinterCaroline DriesMarch 12, 2009 (2009-03-12)3T74653.56[115]
16816"Turbulence"Kevin G. FairAl Septien & Turi MeyerMarch 19, 2009 (2009-03-19)3T74663.49[116]
16917"Hex"Mairzee AlmasBryan MillerMarch 26, 2009 (2009-03-26)3T74673.79[117]
17018"Eternal"James MarshallBrian Peterson & Kelly SoudersApril 2, 2009 (2009-04-02)3T74683.84[118]
17119"Stiletto"Kevin G. FairCaroline DriesApril 23, 2009 (2009-04-23)3T74693.10[119]
17220"Beast"Michael RohlGenevieve SparlingApril 30, 2009 (2009-04-30)3T74703.23[120]
17321"Injustice"Tom WellingAl Septien & Turi MeyerMay 7, 2009 (2009-05-07)3T74713.39[121]
17422"Doomsday"James MarshallBrian Peterson & Kelly SoudersMay 14, 2009 (2009-05-14)3T74723.13[122]

Season 9 (2009-10)

No.
overall
No. in
season
TitleDirected byWritten byOriginal air dateProd.
code
U.S. viewers
(millions)
1751"Savior"Kevin G. FairKelly Souders & Brian PetersonSeptember 25, 2009 (2009-09-25)3X52512.58[123]
1762"Metallo"Mairzee AlmasDon Whitehead & Holly HendersonOctober 2, 2009 (2009-10-02)3X52522.24[124]
1773"Rabid"Michael RohlJordan HawleyOctober 9, 2009 (2009-10-09)3X52532.30[125]
1784"Echo"Wayne RoseBryan MillerOctober 16, 2009 (2009-10-16)3X52542.61[126]
1795"Roulette"Kevin G. FairGenevieve SparlingOctober 23, 2009 (2009-10-23)3X52562.52[127]
1806"Crossfire"Michael RohlDon Whitehead & Holly HendersonOctober 30, 2009 (2009-10-30)3X52572.57[128]
1817"Kandor"Jeannot SzwarcAl Septien & Turi MeyerNovember 6, 2009 (2009-11-06)3X52582.63[129]
1828"Idol"Glen WinterAnne Cofell SaundersNovember 13, 2009 (2009-11-13)3X52552.68[130]
1839"Pandora"Morgan BeggsDrew Landis & Julia SwiftNovember 20, 2009 (2009-11-20)3X52592.45[131]
18410"Disciple"Mairzee AlmasJordan HawleyJanuary 29, 2010 (2010-01-29)3X52602.52[132]
18511[N 1]"Absolute Justice"Glen Winter (1st Hour)
Tom Welling (2nd Hour)
Geoff JohnsFebruary 5, 2010 (2010-02-05)3X5261
3X5262
2.77[135]
18612"Warrior"Allison MackBryan MillerFebruary 12, 2010 (2010-02-12)3X52632.48[136]
18713"Persuasion"Christopher PetryAnne Cofell SaundersFebruary 19, 2010 (2010-02-19)3X52642.42[137]
18814"Conspiracy"Turi MeyerAl Septien & Turi MeyerFebruary 26, 2010 (2010-02-26)3X52652.53[138]
18915"Escape"Kevin G. FairGenevieve SparlingApril 2, 2010 (2010-04-02)3X52662.13[139]
19016"Checkmate"Tim ScanlanJohn ChisholmApril 9, 2010 (2010-04-09)3X52672.13[140]
19117"Upgrade"Michael RohlDrew Landis & Julia SwiftApril 16, 2010 (2010-04-16)3X52681.84[141]
19218"Charade"Brian PetersonDon Whitehead & Holly HendersonApril 23, 2010 (2010-04-23)3X52692.23[142]
19319"Sacrifice"Kevin G. FairTeleplay by: Justin Hartley & Walter Wong & Bryan Miller
Story by: Justin Hartley & Walter Wong
April 30, 2010 (2010-04-30)3X52701.89[143]
19420"Hostage"Glen WinterJordan Hawley & Anne Cofell SaundersMay 7, 2010 (2010-05-07)3X52711.92[144]
19521"Salvation"Greg BeemanAl Septien & Turi MeyerMay 14, 2010 (2010-05-14)3X52722.45[145]

Season 10 (2010-11)

No.
overall
No. in
season
TitleDirected byWritten byOriginal air dateProd.
code
U.S. viewers
(millions)
1961"Lazarus"Kevin G. FairDon Whitehead & Holly HendersonSeptember 24, 2010 (2010-09-24)3X60012.98[146]
1972"Shield"Glen WinterJordan HawleyOctober 1, 2010 (2010-10-01)3X60022.38[147]
1983"Supergirl"Mairzee AlmasAnne Cofell SaundersOctober 8, 2010 (2010-10-08)3X60032.30[148]
1994[N 2]"Homecoming"Jeannot SzwarcBrian Peterson & Kelly SoudersOctober 15, 2010 (2010-10-15)3X60043.19[151]
2005"Isis"James MarshallGenevieve SparlingOctober 22, 2010 (2010-10-22)3X60052.60[152]
2016"Harvest"Turi MeyerAl Septien & Turi MeyerOctober 29, 2010 (2010-10-29)3X60072.96[153]
2027"Ambush"Christopher PetryDon Whitehead & Holly HendersonNovember 5, 2010 (2010-11-05)3X60062.63[154]
2038"Abandoned"Kevin G. FairDrew Landis & Julia SwiftNovember 12, 2010 (2010-11-12)3X60082.90[155]
2049"Patriot"Tom WellingJohn ChisholmNovember 19, 2010 (2010-11-19)3X60092.60[156]
20510"Luthor"Kelly SoudersBryan Q. MillerDecember 3, 2010 (2010-12-03)3X60102.76[157]
20611"Icarus"Mairzee AlmasGenevieve SparlingDecember 10, 2010 (2010-12-10)3X60112.55[158]
20712"Collateral"Morgan BeggsJordan HawleyFebruary 4, 2011 (2011-02-04)3X60122.37[159]
20813"Beacon"Mike RohlDon Whitehead & Holly HendersonFebruary 11, 2011 (2011-02-11)3X60132.32[160]
20914"Masquerade"Tim ScanlanBryan Q. MillerFebruary 18, 2011 (2011-02-18)3X60142.22[161]
21015"Fortune"Christopher PetryAnne Cofell SaundersFebruary 25, 2011 (2011-02-25)3X60152.56[162]
21116"Scion"Al SeptienAl Septien & Turi MeyerMarch 4, 2011 (2011-03-04)3X60162.18[163]
21217"Kent"Jeannot SzwarcTeleplay by: Brian Peterson & Kelly Souders
Story by: Genevieve Sparling
April 15, 2011 (2011-04-15)3X60182.37[164]
21318"Booster"Tom WellingGeoff JohnsApril 22, 2011 (2011-04-22)3X60172.35[165]
21419"Dominion"Justin HartleyJohn ChisholmApril 29, 2011 (2011-04-29)3X60211.99[166]
21520"Prophecy"Mike RohlBryan Q. Miller & Anne Cofell SaundersMay 6, 2011 (2011-05-06)3X60192.07[167]
216-21721-22"Finale"Kevin G. FairAl Septien & Turi MeyerMay 13, 2011 (2011-05-13)3X60203.02[168]
Greg BeemanBrian Peterson & Kelly SoudersMay 13, 2011 (2011-05-13)3X60223.02[168]

Nielsen rankings

The following is a table for the seasonal rankings, based on average total estimated viewers per episode, of Smallville on The WB and The CW. "Rank" refers to how Smallville rated compared to the other television series which aired during primetime hours.

Season Timeslot (ET) Network Episodes First aired Last aired TV season Rank Avg. viewers
(millions)
Date Viewers
(millions)
Date Viewers
(millions)
1 Tuesday 9:00 pm The WB 21 October 16, 2001 8.40[169] May 21, 2002 6.00[170] 2001-02 115[171] 5.90[171]
2 23 September 24, 2002 8.70[172] May 20, 2003 7.50[173] 2002-03 113[174] 6.30[174]
3 Wednesday 8:00 pm 22 October 1, 2003 6.80[175] May 19, 2004 5.92[176] 2003-04 141[177] 4.96[177]
4 22 September 22, 2004 6.07[178] May 18, 2005 5.47[179] 2004-05 124[180] 4.40[180]
5 Thursday 8:00 pm 22 September 29, 2005 5.90[181] May 11, 2006 4.85[182] 2005-06 117[183] 4.70[183]
6 The CW 22 September 28, 2006 4.96[184] May 17, 2007 4.14[185] 2006-07 125[186] 4.10[186]
7 20 September 27, 2007 5.18[187] May 15, 2008 3.85[188] 2007-08 175[189] 3.77[189]
8 22 September 18, 2008 4.34[190] May 14, 2009 3.13[191] 2008-09 152[192] 3.74[192]
9 Friday 8:00 pm 21 September 25, 2009 2.58[193] May 14, 2010 2.45[194] 2009-10 129[195] 2.38[195]
10 22 September 24, 2010 2.98[196] May 13, 2011 3.02[197] 2010-11 202[198] 3.19[199]

Home release

All ten seasons have been released on DVD in Regions 1, 2 and 4. Seasons five and six were also released in the now obsolete HD DVD format on November 28, 2006,[200] and September 18, 2007,[201] respectively. Seasons six, seven, eight, nine and ten have also been released on Blu-ray formats. The DVD releases include commentary by cast and crew members on selected episodes, deleted scenes, and behind-the-scenes featurettes. The promotional tie-ins, Chloe Chronicles and Vengeance Chronicles, accompanied the season two, three, and five box sets respectively. Other special features include interactive functionality such as a tour of Smallville, a comic book, and DVD-ROM material.[202] The complete series box set includes additional special features never before released.

Complete season DVD Release dates Blu-ray Release dates
Region 1 Region 2 Region 4 Region A Region B
1st September 23, 2003[203] October 13, 2003[204] December 3, 2003[205] N/A
2nd May 18, 2004[206] September 17, 2004[207] January 1, 2005[208]
3rd November 16, 2004[209] April 18, 2005[210] July 13, 2005[211]
4th September 13, 2005[212] October 10, 2005[213] November 11, 2006[214]
5th September 12, 2006[215] August 28, 2006[216] April 4, 2007[217]
6th September 18, 2007[218] October 22, 2007[219] March 5, 2008[220] September 18, 2007 (US)[221]
October 9, 2007 (CAN)[222]
October 13, 2008 (UK)[223]
March 3, 2009 (AUS)[224]
7th September 9, 2008[225] October 13, 2008[226] March 3, 2009[227] September 9, 2008[228] October 13, 2008 (UK)[229]
March 3, 2009 (AUS)[230]
8th August 25, 2009[231] October 12, 2009[232] March 31, 2010[233] August 25, 2009[234] October 12, 2009 (UK)[235]
March 31, 2010 (AUS)[236]
9th September 7, 2010[133] October 25, 2010[237] March 2, 2011[238] September 7, 2010[133] October 25, 2010 (UK)[239]
March 1, 2011 (AUS)[240]
10th November 29, 2011[241] October 17, 2011[242] April 4, 2012[243] November 29, 2011[241] October 17, 2011 (UK)[244]
April 4, 2012 (AUS)[245]
The Complete Series November 29, 2011[241] October 17, 2011[246] N/A

Notes

  1. ^ The writers consider "Absolute Justice" two separately produced episodes. However, The CW broadcast them as a single episode, and later packaged it as a single episode in the season nine DVD. Therefore, "Absolute Justice" is both the 185th and 186th episode produced, but only the 185th episode aired.[133][134]
  2. ^ The producers consider season nine's "Absolute Justice" two separately produced episodes. However, The CW combined those two episodes into a single broadcast, and then packaged it in the season nine DVD as one episode as well. Therefore, "Absolute Justice" is both the 185th and 186th episode produced, but only the 185th episode aired. Thus, "Homecoming" is considered the 200th episode produced, but the 199th broadcast. The CW recognizes "Homecoming" to be the 200th episode.[149][150]

References

  1. ^ Jessica Seid (January 24, 2006). "'Gilmore Girls' meet 'Smackdown':CW Network to combine WB, UPN in CBS-Warner venture beginning in September". CNN Money. Retrieved 2007.
  2. ^ Seth Gunderson (November 5, 2001). "Smallville, Kansas. The biggest little town you've ever seen". The Trades. Archived from the original on October 11, 2007. Retrieved 2007.
  3. ^ a b c d e f g h i j k l m n o p q r s t "Episode List: Smallville - Season 1". TV Tango. Retrieved 2014.
  4. ^ a b c d e f g h i j k l m n o p q r s t u v w "Episode List: Smallville - Season 2". TV Tango. Retrieved 2014.
  5. ^ a b c d e f g h i j k l m Smallville - Series - Episode List - TV Tango
  6. ^ "Weekly Program Rankings". ABC Medianet. February 24, 2004. Retrieved 2009.
  7. ^ "Weekly Program Rankings". ABC Medianet. March 2, 2004. Retrieved 2009.
  8. ^ "Weekly Program Rankings". ABC Medianet. March 9, 2004. Retrieved 2009.
  9. ^ "Weekly Program Rankings". ABC Medianet. April 20, 2004. Retrieved 2009.
  10. ^ "Weekly Program Rankings". ABC Medianet. April 27, 2004. Retrieved 2009.
  11. ^ "Weekly Program Rankings". ABC Medianet. May 4, 2004. Retrieved 2009.
  12. ^ "Weekly Program Rankings". ABC Medianet. May 11, 2004. Retrieved 2009.
  13. ^ "Weekly Program Rankings". ABC Medianet. May 18, 2004. Retrieved 2009.
  14. ^ "Weekly Program Rankings". ABC Medianet. May 25, 2004. Retrieved 2009.
  15. ^ "Weekly Program Rankings". ABC Medianet. September 29, 2004. Retrieved 2009.
  16. ^ "Weekly Program Rankings". ABC Medianet. October 5, 2004. Retrieved 2009.
  17. ^ "Weekly Program Rankings". ABC Medianet. October 12, 2004. Retrieved 2009.
  18. ^ "Weekly Program Rankings". ABC Medianet. October 19, 2004. Retrieved 2009.
  19. ^ "Weekly Program Rankings". ABC Medianet. October 26, 2004. Retrieved 2009.
  20. ^ "Weekly Program Rankings". ABC Medianet. November 2, 2004. Retrieved 2009.
  21. ^ "Weekly Program Rankings Report". ABC Medianet. November 9, 2004. Retrieved 2009.
  22. ^ "Weekly Program Rankings". ABC Medianet. November 16, 2004. Retrieved 2009.
  23. ^ "Weekly Program Rankings". ABC Medianet. November 23, 2004. Retrieved 2009.
  24. ^ "Weekly Program Rankings". ABC Medianet. December 7, 2004. Retrieved 2009.
  25. ^ "Weekly Program Rankings". ABC Medianet. February 1, 2005. Retrieved 2009.
  26. ^ "Weekly Program Rankings". ABC Medianet. February 8, 2005. Retrieved 2009.
  27. ^ "Weekly Program Rankings". ABC Medianet. February 15, 2005. Retrieved 2009.
  28. ^ "Weekly Program Rankings". ABC Medianet. February 23, 2005. Retrieved 2009.
  29. ^ "Weekly Program Rankings". ABC Medianet. March 1, 2005. Retrieved 2009.
  30. ^ "Weekly Program Rankings". ABC Medianet. March 8, 2005. Retrieved 2009.
  31. ^ "Weekly Program Rankings". ABC Medianet. April 19, 2005. Retrieved 2009.
  32. ^ "Weekly Program Rankings". ABC Medianet. April 26, 2005. Retrieved 2009.
  33. ^ "Weekly Program Rankings". ABC Medianet. May 3, 2005. Retrieved 2009.
  34. ^ "Weekly Program Rankings". ABC Medianet. May 10, 2005. Retrieved 2009.
  35. ^ "Weekly Program Rankings". ABC Medianet. May 17, 2005. Retrieved 2009.
  36. ^ "Weekly Program Rankings". ABC Medianet. May 24, 2005. Retrieved 2009.
  37. ^ "Weekly Program Rankings". ABC Medianet. October 4, 2005. Retrieved 2009.
  38. ^ "Weekly Program Rankings". ABC Medianet. October 11, 2005. Retrieved 2009.
  39. ^ "Weekly Program Rankings". ABC Medianet. October 18, 2005. Retrieved 2009.
  40. ^ "Weekly Program Rankings". ABC Medianet. October 25, 2005. Retrieved 2009.
  41. ^ "Weekly Program Rankings". ABC Medianet. November 1, 2005. Retrieved 2009.
  42. ^ "Weekly Program Rankings". ABC Medianet. November 8, 2005. Retrieved 2009.
  43. ^ "Weekly Program Rankings". ABC Medianet. November 15, 2005. Retrieved 2009.
  44. ^ "Weekly Program Rankings". ABC Medianet. November 22, 2005. Retrieved 2009.
  45. ^ "Weekly Program Rankings". ABC Medianet. December 13, 2005. Retrieved 2009.
  46. ^ "Weekly Program Rankings". ABC Medianet. January 18, 2006. Retrieved 2009.
  47. ^ "Weekly Program Rankings". ABC Medianet. January 24, 2006. Retrieved 2009.
  48. ^ "Weekly Program Rankings". ABC Medianet. January 31, 2006. Retrieved 2009.
  49. ^ "Weekly Program Rankings". ABC Medianet. February 7, 2006. Retrieved 2009.
  50. ^ "Weekly Program Rankings". ABC Medianet. February 14, 2006. Retrieved 2009.
  51. ^ "Weekly Program Rankings". ABC Medianet. February 22, 2006. Retrieved 2009.
  52. ^ "Weekly Program Rankings". ABC Medianet. April 4, 2006. Retrieved 2009.
  53. ^ "Weekly Program Rankings". ABC Medianet. April 11, 2006. Retrieved 2009.
  54. ^ "Weekly Program Rankings". ABC Medianet. April 18, 2006. Retrieved 2009.
  55. ^ "Weekly Program Rankings". ABC Medianet. April 25, 2006. Retrieved 2009.
  56. ^ "Weekly Program Rankings". ABC Medianet. May 2, 2006. Retrieved 2009.
  57. ^ "Weekly Program Rankings". ABC Medianet. May 9, 2006. Retrieved 2009.
  58. ^ "Weekly Program Rankings". ABC Medianet. May 16, 2006. Retrieved 2009.
  59. ^ "Weekly Program Rankings". ABC Medianet. October 3, 2006. Retrieved 2009.
  60. ^ "Weekly Program Rankings". ABC Medianet. October 10, 2006. Retrieved 2009.
  61. ^ "Weekly Program Rankings". ABC Medianet. October 17, 2006. Retrieved 2009.
  62. ^ "Weekly Program Rankings". ABC Medianet. October 24, 2006. Retrieved 2009.
  63. ^ "Weekly Program Rankings". ABC Medianet. October 31, 2006. Retrieved 2009.
  64. ^ "Weekly Program Rankings". ABC Medianet. November 7, 2006. Retrieved 2009.
  65. ^ "Weekly Program Rankings". ABC Medianet. November 14, 2006. Retrieved 2009.
  66. ^ "Weekly Program Rankings". ABC Medianet. November 21, 2006. Retrieved 2009.
  67. ^ "Weekly Program Rankings". ABC Medianet. December 12, 2006. Retrieved 2009.
  68. ^ "Weekly Program Rankings". ABC Medianet. January 17, 2007. Retrieved 2009.
  69. ^ "Weekly Program Rankings". ABC Medianet. January 23, 2007. Retrieved 2009.
  70. ^ "Weekly Program Rankings". ABC Medianet. January 30, 2007. Retrieved 2009.
  71. ^ "Weekly Program Rankings". ABC Medianet. February 6, 2007. Retrieved 2009.
  72. ^ "Weekly Program Rankings". ABC Medianet. February 13, 2007. Retrieved 2009.
  73. ^ "Weekly Program Rankings". ABC Medianet. February 21, 2007. Retrieved 2009.
  74. ^ "Weekly Program Rankings". ABC Medianet. March 20, 2007. Retrieved 2009.
  75. ^ "Weekly Program Rankings". ABC Medianet. March 27, 2007. Retrieved 2009.
  76. ^ "Weekly Program Rankings". ABC Medianet. April 24, 2007. Retrieved 2009.
  77. ^ "Weekly Program Rankings". ABC Medianet. May 1, 2007. Retrieved 2009.
  78. ^ "Weekly Program Rankings". ABC Medianet. May 8, 2007. Retrieved 2009.
  79. ^ "Weekly Program Rankings". ABC Medianet. May 15, 2007. Retrieved 2009.
  80. ^ "Weekly Program Rankings". ABC Medianet. May 22, 2007. Archived from the original on May 28, 2010. Retrieved 2009.
  81. ^ "Weekly Program Rankings". ABC Medianet. October 2, 2007. Retrieved 2009.
  82. ^ "Weekly Program Rankings". ABC Medianet. October 9, 2007. Retrieved 2009.
  83. ^ "Weekly Program Rankings". ABC Medianet. October 16, 2007. Retrieved 2009.
  84. ^ "Weekly Program Rankings". ABC Medianet. October 23, 2007. Retrieved 2009.
  85. ^ "Weekly Program Rankings". ABC Medianet. October 30, 2007. Retrieved 2009.
  86. ^ Calabria, Rosario T. (November 2, 2007). "Broadcast TV Ratings for November 1, 2007". Entertainment Now. Retrieved 2008.
  87. ^ "Weekly Program Rankings". ABC Medianet. November 13, 2007. Retrieved 2009.
  88. ^ "Weekly Program Rankings". ABC Medianet. November 20, 2007. Retrieved 2009.
  89. ^ Gorman, Bill (December 19, 2007). "Top CW Primetime Shows, December 10-16". TV by the Numbers. Retrieved 2008.
  90. ^ "Weekly Program Rankings". ABC Medianet. February 5, 2008. Retrieved 2009.
  91. ^ "Weekly Program Rankings". ABC Medianet. February 12, 2008. Retrieved 2009.
  92. ^ "Weekly Program Rankings". ABC Medianet. February 20, 2008. Retrieved 2009.
  93. ^ "Weekly Program Rankings". ABC Medianet. March 18, 2008. Retrieved 2009.
  94. ^ "Weekly Program Rankings". ABC Medianet. March 25, 2008. Retrieved 2009.
  95. ^ "Weekly Program Rankings". ABC Medianet. April 1, 2008. Retrieved 2009.
  96. ^ "Weekly Program Rankings". ABC Medianet. April 22, 2008. Retrieved 2009.
  97. ^ "Weekly Program Rankings". ABC Medianet. April 29, 2008. Retrieved 2009.
  98. ^ "Weekly Program Rankings". ABC Medianet. May 1, 2008. Retrieved 2009.
  99. ^ "Weekly Program Rankings". ABC Medianet. May 13, 2008. Retrieved 2009.
  100. ^ "Weekly Program Rankings". ABC Medianet. May 20, 2008. Retrieved 2009.
  101. ^ Gorman, Bill (September 23, 2008). "Top CW Primetime Shows, September 15-21". TV by the Numbers. Retrieved 2008.
  102. ^ Gorman, Bill (September 30, 2008). "Top CW Primetime Shows, September 22-28". TV by the Numbers. Retrieved 2008.
  103. ^ Gorman, Bill (October 14, 2008). "Top CW Primetime Shows, October 6-12". TV by the Numbers. Retrieved 2008.
  104. ^ Gorman, Bill (October 7, 2008). "Top CW Primetime Shows, September 29 - October 5". Retrieved 2008.
  105. ^ Gorman, Bill (October 21, 2008). "Top CW Primetime Shows, October 13-19". TV by the Numbers. Retrieved 2008.
  106. ^ Seidman, Robert (October 29, 2008). "Top CW Primetime Shows, October 20-26". TV by the Numbers. Retrieved 2008.
  107. ^ Seidman, Robert (November 4, 2008). "Top CW Primetime Shows, October 27 - November 2". TV by the Numbers. Retrieved 2008.
  108. ^ Seidman, Robert (November 11, 2008). "Top CW Primetime Shows, November 3-9". TV by the Numbers. Retrieved 2008.
  109. ^ Seidman, Robert (November 18, 2008). "Top CW Primetime Shows, November 10-16, 2008". TV by the Numbers. Retrieved 2008.
  110. ^ Seidman, Robert (November 25, 2008). "Top CW Primetime Shows, November 17-23". TV by the Numbers. Retrieved 2008.
  111. ^ Seidman, Robert (January 21, 2009). "Top CW Primetime Shows, January 12-18". TV by the Numbers. Retrieved 2009.
  112. ^ Seidman, Robert (January 27, 2009). "Top CW Primetime Shows, January 19-25, 2009". TV by the Number. Retrieved 2009.
  113. ^ Seidman, Robert (February 3, 2009). "Top CW Primetime Shows, January 26 - February 1, 2009". TV by the Numbers. Retrieved 2009.
  114. ^ Seidman, Robert (February 10, 2009). "Top CW Primetime Shows, February 2-8, 2009". TV by the Numbers. Retrieved 2009.
  115. ^ Seidman, Robert (March 17, 2009). "Top CW Primetime Shows, March 9-15, 2009". TV by the Numbers. Retrieved 2009.
  116. ^ Seidman, Robert (March 24, 2009). "Top CW Primetime Shows, March 16-22, 2009". TV by the Numbers. Retrieved 2009.
  117. ^ Seidman, Robert (March 31, 2009). "Top CW Primetime Shows, March 23-29, 2009". TV by the Numbers. Retrieved 2009.
  118. ^ Seidman, Robert (April 7, 2009). "Top CW Primetime Shows, March 30 - April 5, 2009". TV by the Numbers. Retrieved 2009.
  119. ^ Seidman, Robert (May 2, 2009). "Top CW Primetime Shows, April 20-26, 2009". TV by the Numbers. Retrieved 2009.
  120. ^ Seidman, Robert (May 6, 2009). "Top CW Primetime Shows, April 27 - May 3, 2009". TV by the Numbers. Retrieved 2009.
  121. ^ Seidman, Robert (May 12, 2009). "Top CW Primetime Shows, May 4-10, 2009". TV by the Numbers. Retrieved 2009.
  122. ^ Seidman, Robert (May 19, 2009). "Top CW Primetime Shows, May 11-17, 2009". TV by the Numbers. Retrieved 2009.
  123. ^ Gorman, Bill (October 12, 2009). "Dollhouse Premiere 18-49 Rating Increases To A 1.5 Via DVR; Hopeful or Futile?". TV by the Numbers. Retrieved 2009.
  124. ^ Berman, Marc (October 20, 2009). "ABC Wins Monday Overnights; Fox the Network to Beat Among Adults 18-49". MediaWeek.com. Retrieved 2009.
  125. ^ Seidman, Robert (October 10, 2009). "TV Ratings: Dollhouse rises; Ghost Whisperer leads CBS to win". TV by the Numbers. Retrieved 2009.
  126. ^ Seidman, Robert (November 2, 2009). "Smallville sees HUGE DVR increases DVR viewer increases: House most DVR'd; Fringe biggest % increase". TV by the Numbers. Retrieved 2009.
  127. ^ Gorman, Bill (October 24, 2009). "Updated TV Ratings: Dollhouse hits low note; Medium wins with adults 18-49". TV by the Numbers. Retrieved 2009.
  128. ^ Seidman, Robert (November 16, 2009). "crazed #Smallville fans, 10/30 episode boosted with DVR from L+SD 2.565M to L+7 3.24 million. 18-49 went from a 1.1 rating to a 1.5 rating". Twitter. Retrieved 2009.
  129. ^ Seidman, Robert (November 9, 2009). "UPDATED Friday Broadcast Finals: Smallville hits several season highs". TV by the Numbers. Retrieved 2009.
  130. ^ "Live Plus 7 Day Ratings Update". MediaWeek. November 17, 2009. Archived from the original on November 20, 2009. Retrieved 2009.
  131. ^ Seidman, Robert (November 21, 2009). "TV Ratings:Ghost Whisperer leads night with adults 18-49; Shrek the Third helps ABC". TV by the Numbers. Retrieved 2009.
  132. ^ Seidman, Robert (January 30, 2010). "TV Ratings: CBS Wins Slow Friday; Smallville returns; Dollhouse finishes". TV by the Numbers. Retrieved 2011.
  133. ^ a b c David Lambert (June 17, 2010). "Final (Earlier!) Release Date and Extras for The Complete 9th Season on DVD and Blu-ray". TVShowsOnDVD.com. Archived from the original on June 19, 2010. Retrieved 2010.
  134. ^ "Smallville writers respond". Twitter. February 19, 2010. Retrieved 2010.
  135. ^ Seidman, Robert (February 6, 2010). "TV Ratings: CBS Wins Friday Again; Two New Hours of Smallville Are Better than One for CW". TV by the Numbers. Retrieved 2010.
  136. ^ Seidman, Robert (February 13, 2010). "TV Ratings: Vancouver Opening Ceremonies Average 34.5 32.6 Million Viewers". TV by the Numbers. Retrieved 2010.
  137. ^ Seidman, Robert (February 20, 2010). "TV Ratings: Olympics on NBC Crushes Competition; Smallville Steady". TV by the Numbers. Retrieved 2010.
  138. ^ Seidman, Robert (February 27, 2010). "TV Ratings: Olympics Easily Skates To Victory; Smallville Up Slightly". TV by the Numbers. Retrieved 2010.
  139. ^ "Friday Broadcast Finals: "Smallville" Rises". Tvbythenumbers.com.com. April 5, 2010. Retrieved 2010.
  140. ^ Seidman, Robert (April 10, 2010). "TV Ratings: As Expected "Ghost Whisperer" and "Medium" Rebound as "Miami Medical" Falls, But..." TV by the Numbers. Retrieved 2011.
  141. ^ Seidman, Robert (April 17, 2010). "TV Ratings: The Food Revolution Continues, Weakly; Miami Medical, Smallville Fall". TV by the Numbers. Retrieved 2011.
  142. ^ Gorman, Bill (April 24, 2010). "TV Ratings: Dateline Leads NBC Win, As Food Revolution Ends Without A Bang". TV by the Numbers. Retrieved 2011.
  143. ^ ""Smallville" & "Miami Medical" Adjusted Down in Friday Finals - TV Ratings, Nielsen Ratings, Television Show Ratings". TVbytheNumbers.com. May 3, 2010. Retrieved 2010.
  144. ^ Seidman, Robert (May 8, 2010). "TV Ratings: Friday Night Lights Returns Quietly; "Primetime: What Would You Do?" Leads ABC". TV by the Numbers. Retrieved 2011.
  145. ^ Seidman, Robert (May 15, 2010). "TV Ratings: Primetime: What Would You Do?, 20/20" Pace ABC To Win; "Smallville" Up". TV by the Numbers. Retrieved 2011.
  146. ^ Gorman, Bill (September 27, 2010). "Friday Finals: Supernatural Up; Dateline Down". TV by the Numbers. Retrieved 2010.
  147. ^ Seidman, Robert (October 5, 2010). "Friday Finals: No Changes With 18-49 Ratings for Originals". TV by the Numbers. Retrieved 2010.
  148. ^ Gorman, Bill (October 11, 2010). "Friday Final Ratings: Dateline, Outlaw, Good Guys, Supernatural Adjusted Down". TV by the Numbers. Retrieved 2010.
  149. ^ "Smallville writers respond". Twitter. February 19, 2010. Retrieved 2010.
  150. ^ David Lambert (June 17, 2010). "Final (Earlier!) Release Date and Extras for The Complete 9th Season on DVD and Blu-ray". TVShowsOnDVD.com. Archived from the original on June 19, 2010. Retrieved 2010.
  151. ^ Seidman, Robert (October 18, 2010). "Friday Final Ratings: Medium Adjusted Down, Smallville, Supernatural Hold Preliminary Ratings". TV by the Numbers. Retrieved 2010.
  152. ^ Gorman, Bill (October 25, 2010). "Friday Final Ratings: Smallville Adjusted Up; CSI:NY, Dateline Adjusted Down". TV by the Numbers. Retrieved 2010.
  153. ^ Seidman, Robert (November 1, 2010). "Friday Final Ratings: The Great Pumpkin Rises". TV by the Numbers. Retrieved 2010.
  154. ^ Gorman, Bill (November 8, 2010). "Friday Final Ratings: What Would You Do?, 20/20, Blue Bloods Adjusted Up". TV by the Numbers. Retrieved 2010.
  155. ^ Seidman, Robert (November 15, 2010). "Friday Final Ratings: 20/20 Down a Tenth; Smallville Still Rocked w/Teri Hatcher". TV by the Numbers. Retrieved 2010.
  156. ^ Seidman, Robert (November 22, 2010). "Friday Final Ratings: CSI: NY Adjusted Down; School Pride Adjusted Up". TV by the Numbers. Retrieved 2010.
  157. ^ Gorman, Bill (December 6, 2010). "Friday Final Ratings: No Adjustments For Smallville, Supernatural, Or Any Other Shows". TV by the Numbers. Retrieved 2010.
  158. ^ Seidman, Robert (December 13, 2010). "Friday Final Ratings: 'Supernanny,' 'Primetime,' Adjusted Up; '20/20' Adjusted Down; No Changes for Smallville, Supernatural, & Others". TV by the Numbers. Retrieved 2010.
  159. ^ Seidman, Gorman (February 7, 2011). "Friday Finals: No Adjustments for 'Fringe,' 'Supernatural,' 'Smallville' or Any Other Show's 18-49 Ratings". TV by the Numbers. Retrieved 2011.
  160. ^ Bill Gorman (February 12, 2011). "Updated TV Ratings Friday: 'Fringe' Falls Further, 'Smallville,' 'Supernatural,' Down; 'The Defenders,' 'CSI:NY' Hit Lows". TV By The Numbers. Retrieved 2011.
  161. ^ Seidman, Robert (February 22, 2011). "Friday Final Ratings: 'Blue Bloods' Falls; No Adjustments for 'Fringe,' 'Smallville' and 'Supernatural". TV by the Numbers. Retrieved 2011.
  162. ^ Gorman, Bill (February 28, 2011). "Friday Final Ratings: 'CSI:NY' Adjusted Up; No Adjustments For 'Fringe,' 'Supernatural,' 'Smallville'". TV by the Numbers. Retrieved 2011.
  163. ^ Seidman, Robert (March 7, 2011). "Friday Final Ratings: 'Smallville' Adjusted Down, 20/20 Adjusted Up". TV by the Numbers. Retrieved 2011.
  164. ^ Seidman, Robert (April 11, 2011). "Friday Final Ratings: 'Fringe,' 'Chaos' and 'Kitchen Nightmares' Adjusted Up". TV by the Numbers. Retrieved 2011.
  165. ^ Seidman, Robert (April 25, 2011). "Friday Final Ratings: 'Smallville' Adjusted Up; 'Fringe' Stays at Series Low; 'Friday Night Lights' Adjusted Down". TV by the Numbers. Retrieved 2011.
  166. ^ Gorman, Bill (May 2, 2011). "Friday Final Ratings: 'Friday Night Lights,' Two Wedding Shows Adjusted Up; No Adjustments For 'Fringe,' 'Smallville,' 'Supernatural'". TV by the Numbers. Retrieved 2011.
  167. ^ Gorman, Bill (May 9, 2011). "Friday Final Ratings: 'Supernatural,' 'CSI:NY' Adjusted Up, No Adjustments To 'Fringe'". TV by the Numbers. Retrieved 2011.
  168. ^ Seidman, Robert (May 16, 2011). "Friday Final Ratings: 'CSI:NY,' 'Blue Bloods,' 'Friday Night Lights,' and 'Kitchen Nightmares Adjusted Up, No Adjustments To 'Smallville'". TV by the Numbers. Retrieved 2011.
  169. ^ Gunderson, Seth (November 5, 2001). "Smallville, Kansas. The biggest little town you've ever seen". The Trades. Archived from the original on October 11, 2007. Retrieved 2007.
  170. ^ "Nielsen Ratings", St. Paul Pioneer Press, Saint Paul, Minnesota, Associated Press, pp. B6, May 30, 2002, (unknown ID) 0205290272
  171. ^ a b "How did your favorite show rate? (2001-02)". USA Today. May 28, 2002. Retrieved 2007.
  172. ^ "WB is getting its mojo back". Medialifemagazine.com. September 26, 2002. Archived from the original on July 14, 2011. Retrieved 2010.
  173. ^ TV Listings for - May 20, 2003 - TV Tango
  174. ^ a b "2002-03 Ratings". Retrieved 2007.
  175. ^ TV Listings for - October 1, 2003 - TV Tango
  176. ^ "Weekly Program Rankings". ABC Medianet. May 25, 2004. Retrieved 2009.
  177. ^ a b "2003-04 Ratings". ABC Medianet. Archived from the original on September 30, 2007. Retrieved 2007.
  178. ^ "Weekly Program Rankings". ABC Medianet. September 29, 2004. Archived from the original on July 18, 2014. Retrieved 2009.
  179. ^ "Weekly Program Rankings". ABC Medianet. May 24, 2005. Archived from the original on May 16, 2009. Retrieved 2009.
  180. ^ a b "2004-05 Primetime Wrap". The Hollywood Reporter. May 27, 2005. Archived from the original on July 8, 2006. Retrieved 2007.
  181. ^ "Weekly Program Rankings". ABC Medianet. October 4, 2005. Retrieved 2009.
  182. ^ "Weekly Program Rankings". ABC Medianet. May 16, 2006. Archived from the original on May 28, 2010. Retrieved 2009.
  183. ^ a b "Series". The Hollywood Reporter. May 26, 2006. Archived from the original on May 19, 2007. Retrieved 2007.
  184. ^ "Weekly Program Rankings". ABC Medianet. October 3, 2006. Archived from the original on January 10, 2015. Retrieved 2009.
  185. ^ "Weekly Program Rankings". ABC Medianet. May 22, 2007. Archived from the original on July 28, 2010. Retrieved 2009.
  186. ^ a b "2006-07 primetime wrap". The Hollywood Reporter. May 25, 2007. Archived from the original on May 28, 2007. Retrieved 2007.
  187. ^ "Weekly Program Rankings". ABC Medianet. October 2, 2007. Archived from the original on May 1, 2011. Retrieved 2009.
  188. ^ "Weekly Program Rankings". ABC Medianet. May 20, 2008. Retrieved 2009.
  189. ^ a b "Weekly Program Rankings". ABC Medianet. May 20, 2008. Retrieved 2009.
  190. ^ Gorman, Bill (September 23, 2008). "Top CW Primetime Shows, September 15-21". TV by the Numbers. Archived from the original on December 2, 2008. Retrieved 2008.
  191. ^ Seidman, Robert (May 19, 2009). "Top CW Primetime Shows, May 11-17, 2009". TV by the Numbers. Archived from the original on October 5, 2009. Retrieved 2009.
  192. ^ a b "Weekly Program Rankings". ABC Medianet. May 19, 2008. Archived from the original on May 23, 2012. Retrieved 2009.
  193. ^ Gorman, Bill (October 12, 2009). "Dollhouse Premiere 18-49 Rating Increases To A 1.5 Via DVR; Hopeful or Futile?". TV by the Numbers. Archived from the original on October 15, 2009. Retrieved 2009.
  194. ^ Paul Millar (May 16, 2010). "2.5m watch 'Smallville' season finale". Digital Spy. Retrieved 2010.
  195. ^ a b "Final 2009-10 Broadcast Primetime Show Average Viewership - TV Ratings, Nielsen Ratings, Television Show Ratings". TVbytheNumbers.com. Archived from the original on June 19, 2010. Retrieved 2010.
  196. ^ Gorman, Bill (September 27, 2010). "Friday Finals: Supernatural Up; Dateline Down". TV by the Numbers. Archived from the original on October 1, 2010. Retrieved 2010.
  197. ^ Seidman, Robert (May 16, 2011). "Friday Final Ratings: 'CSI:NY,' 'Blue Bloods,' 'Friday Night Lights,' and 'Kitchen Nightmares Adjusted Up, No Adjustments To 'Smallville'". TV by the Numbers. Retrieved 2011.
  198. ^ "2010-11 Season Broadcast Primetime Show Viewership Averages". Tvbythenumbers.com. June 1, 2011. Archived from the original on August 12, 2014. Retrieved 2011.
  199. ^ Gorman, Bill (June 13, 2011). "'Modern Family' Tops DVR Ratings Gain For The 2010-11 Season; 'Fringe' Has Biggest % Increase By DVR". TV by the Numbers. Retrieved 2011.
  200. ^ "Season Five (HD-DVD)". TVShowsOnDVD.com. Archived from the original on September 8, 2009. Retrieved 2010.
  201. ^ "Season Six (HD-DVD)". TVShowsOnDVD.com. Archived from the original on August 23, 2010. Retrieved 2010.
  202. ^ DVD extras noted on the back of each season's box.
  203. ^ "Season 1 (Region 1)". TVShowsOnDVD.com. Archived from the original on July 7, 2009. Retrieved 2009.
  204. ^ "Season 1 (Region 2)". Amazon France. Retrieved 2006.
  205. ^ "Season 1 (Region 4)". JB HI-FI online. Retrieved 2007.
  206. ^ "Season 2 (Region 1)". TVShowsOnDVD.com. Archived from the original on November 5, 2008. Retrieved 2009.
  207. ^ "Season 2 (Region 2)". Amazon France. Retrieved 2006.
  208. ^ "Season 2 (Region 4)". JB HI-FI online. Retrieved 2009.
  209. ^ "Season 3 (Region 1)". TVShowsOnDVD.com. Archived from the original on November 4, 2008. Retrieved 2009.
  210. ^ "Season 3 (Region 2)". Amazon France. Retrieved 2006.
  211. ^ "Season 3 (Region 4)". JB HI-FI online. Retrieved 2009.
  212. ^ "Season 4 (Region 1)". TVShowsOnDVD.com. Archived from the original on November 4, 2008. Retrieved 2009.
  213. ^ "Season 4 (Region 2)". Amazon France. Retrieved 2006.
  214. ^ "Season 4 (Region 4)". JB HI-FI online. Retrieved 2009.
  215. ^ "Season 5 (Region 1)". TVShowsOnDVD.com. Archived from the original on November 4, 2008. Retrieved 2009.
  216. ^ "Season 5 (Region 2)". Amazon France. Retrieved 2006.
  217. ^ "Season 5 (Region 4)". Ezydvd. Archived from the original on January 15, 2007. Retrieved 2007.
  218. ^ David Lambert (May 23, 2007). "Smallville ;-- Clark's secret is out: 6th Season Street date, costs, and extras!". TVShowsOnDVD.com. Archived from the original on April 27, 2009. Retrieved 2009.
  219. ^ "Season 6 (Region 2)". Amazon. Retrieved 2007.
  220. ^ "Season 6 (Region 4)". Ezydvd. Archived from the original on October 19, 2009. Retrieved 2009.
  221. ^ "Smallville -- The Complete Sixth Season -- Blu-ray". TVShowsOnDVD.com. Archived from the original on November 4, 2008. Retrieved 2009.
  222. ^ "Smallville: Season 6 (Blu-ray)". Amazon.ca. Retrieved 2009.
  223. ^ "Smallville -- The Complete Sixth Season [Blu-ray] (2006)". Amazon.co.uk. Retrieved 2009.
  224. ^ "Smallville -- The Complete 6th Season (4 Disc Set) (Blu-ray)". ezydvd. Archived from the original on October 13, 2009. Retrieved 2009.
  225. ^ David Lambert (May 21, 2008). "Smallville ;-- Release Date, Package Art & Extras for 7th Season DVDs and Blu-ray Discs!". TVShowsOnDVD.com. Archived from the original on May 25, 2008. Retrieved 2008.
  226. ^ "Smallville season 7 (Region 2)". Amazon.uk. Retrieved 2009.
  227. ^ "Season 7 (Region 4)". Ezydvd. Archived from the original on December 18, 2008. Retrieved 2008.
  228. ^ "Smallville -- The Complete Seventh Season -- Blu-ray". TVShowsOnDVD.com. Archived from the original on November 4, 2008. Retrieved 2009.
  229. ^ "Smallville -- The Complete Seventh Season (Blu-ray)". Amazon.co.uk. Retrieved 2009.
  230. ^ "Smallville -- The Complete 7th Season (3 Disc Set) (Blu-ray)". ezydvd. Archived from the original on October 7, 2009. Retrieved 2009.
  231. ^ David Lambert (June 3, 2009). "DVD & Blu-ray Official 8th Season Announcement: Extras, 3D Box Art & August Date". TVShowsOnDVD.com. Archived from the original on June 6, 2009. Retrieved 2009.
  232. ^ "DVD Official 8th Season (Region 2)". Amazon.uk. Retrieved 2009.
  233. ^ "Smallville -- The Complete 8th Season (6 Disc Set)". EzyDVD. Archived from the original on January 31, 2010. Retrieved 2010.
  234. ^ "Smallville -- The Complete Eighth Season -- Blu-ray". TVShowsOnDVD.com. Archived from the original on August 28, 2009. Retrieved 2010.
  235. ^ "Smallville -- The Complete Eighth Season [Blu-ray] (2009)". Amazon.co.uk. Retrieved 2009.
  236. ^ "Smallville -- The Complete 8th Season (4 Disc Set) (Blu-ray)". ezydvd. Archived from the original on March 22, 2010. Retrieved 2010.
  237. ^ "Smallville Complete Ninth Season DVD (Region 2)". amazon.uk.
  238. ^ "Smallville -- The Complete 9th Season (6 Disc Set)". EzyDVD. Retrieved 2011.
  239. ^ "Smallville -- The Complete Ninth Season [Blu-ray] (2010)". Amazon.co.uk.
  240. ^ "Smallville -- The Complete 9th Season (6 Disc Set)". JB Hi-Fi. Archived from the original on April 7, 2011.
  241. ^ a b c "Smallville - Finalized Date, Bonus Items, Packaging for Complete Series and The 10th Season Sets". tvbythenumbers.com. Archived from the original on August 10, 2011.
  242. ^ "Smallville Complete Tenth Season DVD (Region 2)". amazon.uk.
  243. ^ "Smallville - Season 10 DVD". JB Hi-Fi. Retrieved 2012.
  244. ^ "Smallville -- The Complete Tenth Season [Blu-ray] (2011) (Region Free)". Amazon.co.uk.
  245. ^ "Smallville - Season 10 Blu-ray". JB Hi-Fi. Retrieved 2012.
  246. ^ "Smallville - Season 1-10 Complete [DVD]". amazon.uk.

External links


  This article uses material from the Wikipedia page available here. It is released under the Creative Commons Attribution-Share-Alike License 3.0.

List_of_Smallville_episodes
 



 



 
Music Scenes